Location: Bremen
(53.0793°N, 8.8017°E)
Time: 22:52:17
(UTC+01:00)

Explorer 7 - Pass Details

Date: 01 December 2021
Orbit: 483 x 674 km, 50.3° (Epoch: 17 January)

Event Time Altitude Azimuth Distance (km) Brightness Sun altitude
Rises 11:01:05 0° 273° (W) 2,657 10.1 13.4°
Reaches altitude 10° 11:03:23 10° 268° (W) 1,740 9.3 13.5°
Maximum altitude 11:07:10 48° 193° (SSW) 660 8.1 13.7°
Drops below altitude 10° 11:10:48 10° 119° (ESE) 1,675 10.1 13.8°
Sets 11:12:59 0° 113° (ESE) 2,545 10.8 13.9°
